Regional Weather Roundup
Issued by NWS Charleston, SC

Current Version | Previous Version | Text Only | Print | Product List | Glossary Off
Versions: 1 2 3 4 5 6 7 8 9 10 11 12 13 14 15 16 17 18 19 20 21 22 23 24 25 26 27 28 29 30 31 32 33 34 35 36 37 38 39 40 41 42 43 44 45 46 47 48 49 50

000
ASUS42 KCHS 221227
RWRCHS

REGIONAL WEATHER ROUNDUP
NATIONAL WEATHER SERVICE CHARLESTON SC
800 AM EDT WED MAR 22 2017

NOTE: "FAIR" INDICATES FEW OR NO CLOUDS BELOW 12,000 FEET WITH NO
SIGNIFICANT WEATHER AND/OR OBSTRUCTIONS TO VISIBILITY.

NOT ALL STATIONS ARE QUALITY CONTROLLED. USE DATA WITH CAUTION...
ESPECIALLY DEWPOINT OBSERVATIONS.

SCZ027-030-031-034>040-042>050-221300-
...SOUTHEAST SOUTH CAROLINA...

CITY           SKY/WX    TMP DP  RH WIND       PRES   REMARKS
N CHARLESTON   PTCLDY    61  57  87 S9        29.97R
6HR MIN TEMP:  60; 6HR MAX TEMP:  64; 6HR PCP: TRACE;

WATERFRONT PRK   N/A     61  59  93 W5        29.96R
JOHNS ISLAND   FAIR      63  59  88 W9        29.98R
PINOPOLIS        N/A     59  59 100 W7        29.87R
MONCKS CORNER  FAIR      59  57  94 W3        29.98R
SUMMERVILLE    FAIR      59  57  94 W5        30.00R
BEAUFORT MCAS  PTCLDY    59  57  93 W3        29.99R
6HR MIN TEMP:  54; 6HR MAX TEMP:  67;

BEAUFORT ARPT  FAIR      61  59  94 NW3       29.99R
HILTON HEAD IS CLEAR     61  57  88 CALM      29.98R
WALTERBORO     SUNNY     57  55  94 CALM      30.00R
ALLENDALE      FAIR      57  57 100 CALM      30.00R FOG

...SOUTHERN MIDLANDS AND PEE DEE...

CITY           SKY/WX    TMP DP  RH WIND       PRES   REMARKS
GEORGETOWN     CLOUDY    59  59 100 W8        29.98R
KINGSTREE      CLOUDY    59  57  94 W6        29.99R
ORANGEBURG     MOCLDY    59  57  93 NW7       30.01R
6HR MIN TEMP:  58; 6HR MAX TEMP:  62; 6HR PCP:  0.01;

BARNWELL       FAIR      59  59 100 CALM      30.01R
AIKEN          FAIR      55  55 100 NW6       30.05R
MANNING        CLOUDY    59  55  88 CALM      29.99R
COLUMBIA       CLOUDY    61  58  90 N7        30.00R
6HR MIN TEMP:  58; 6HR MAX TEMP:  62;

SUMTER         CLEAR     59  57  94 NW9       29.98R
6HR MIN TEMP:  58; 6HR MAX TEMP:  61; 6HR PCP: TRACE;

FLORENCE       CLOUDY    59  52  77 N13       29.98R
6HR MIN TEMP:  58; 6HR MAX TEMP:  62; 6HR PCP: TRACE;

MYRTLE BEACH   MOCLDY    59  59 100 NW9       29.96
N MYRTLE BEACH CLOUDY    60  60 100 W5        29.95R
6HR MIN TEMP:  58; 6HR MAX TEMP:  65; 6HR PCP:  0.09;


$$

GAZ063-065-086>088-099>101-113>116-118-119-134>141-150-221300-
...SOUTHEAST GEORGIA...

CITY           SKY/WX    TMP DP  RH WIND       PRES   REMARKS
SAVANNAH ARPT  MOCLDY    58  54  86 N5        30.00R
6HR MIN TEMP:  57; 6HR MAX TEMP:  67;

HUNTER AAF     CLEAR     61  61 100 NW5       29.97R
FORT STEWART   CLEAR     63  59  88 W5        29.97R
STATESBORO     CLEAR     57  32  39 NW3       30.02R
SYLVANIA       SUNNY    N/A N/A N/A NW3       30.02R
CLAXTON        FAIR     N/A N/A N/A CALM      30.02R

...CSRA...CENTRAL AND FAR SOUTHEAST GEORGIA...

CITY           SKY/WX    TMP DP  RH WIND       PRES   REMARKS
THOMSON          N/A     56  56 100 CALM      30.08R VSB 1/4
AUGUSTA-BUSH   CLEAR     53  53 100 CALM      29.99R
6HR MIN TEMP:  53; 6HR MAX TEMP:  63;

AUGUSTA-DANIEL CLEAR     60  55  83 N7        30.01R
SWAINSBORO     FAIR      59  57  94 NW5       30.04R
VIDALIA        CLEAR     64  57  77 NW7       30.03R
EASTMAN        FAIR      60  60 100 CALM      30.07R
HAZLEHURST     FAIR      64  64 100 W3        30.02R
ALMA           CLEAR     60  59  96 W3        30.02R FOG
6HR MIN TEMP:  59; 6HR MAX TEMP:  67;

WAYCROSS       CLEAR     63  63 100 W6        30.04R
JESUP          FAIR      63  59  88 CALM      30.02R
BAXLEY         FAIR      63  63 100 W5        30.02R
BRUNSWICK      PTCLDY    63  63 100 W10       30.02R
SAINT SIMONS   CLEAR     62  60  93 MISG      30.00R
6HR MIN TEMP:  62; 6HR MAX TEMP:  68;


$$

SCZ027-028-034-036>038-045-046-048>050-GAZ119-141-221300-
...LAKE AND SUPPLEMENTAL COASTAL OBSERVATIONS...

STATION/POSITION TIME  TEMP    WIND        PRES    WAVE   SWELL
                       AIR SEA DIR/SP/G            HT/PER HT/PER/DIR
                 (UTC) (F)     (DEG/KT/KT) (MB)    (FT/S) (FT/S/D)
WINYAH BAY       1145   60     290/  6     1014.0R
LAKE MURRAY      1220   63      CALM  /  4 1016.3R
ACE BASIN NERRS  1145   60     230/  1     1015.0R
FORT PULASKI     1200   61 60  350/  5/  6 1015.9
SAPELO ISLAND    1200   63     250/  9     1016.0

$$

ANZ835-935-AMZ111-154-330-350-352-354-370-450-454-472-221300-
...C-MAN AND BUOY OBSERVATIONS...

STATION/POSITION TIME  TEMP    WIND        PRES    WAVE   SWELL
                       AIR SEA DIR/SP/G            HT/PER HT/PER/DIR
                 (UTC) (F)     (DEG/KT/KT) (MB)    (FT/S) (FT/S/D)
BUOY 41004       1150   65 66  290/ 14/ 16 1013.9R   4/ 6   2/120/11
BUOY 41008       1150   62 61  230/ 16/ 19 1014.8R   3/ 5   2/ 90/11
FOLLY BEACH CMAN 1200   61     290/  5/  6 1015.5R
CAPERS NEARSHORE 1208   61     270/  8/ 12 1014.7R
FRIPP NEARSHORE  1208   62 59  320/  6/ 10 1015.3R


STATION/POSITION TIME  TEMP    WIND        PRES    WAVE   SWELL
                       AIR SEA DIR/SP/G            HT/PER HT/PER/DIR
                 (UTC) (F)     (DEG/KT/KT) (MB)    (FT/S) (FT/S/D)
5E ST. MARYS GA  1200      63                N/A     2/13   2/ 90/13
FRYING PAN BUOY  1210   64 66  260/ 17/ 21 1014.0
BUOY 41025       1150   58 74   20/ 21/ 25 1011.5F   7/11   5/ 60/11
CAPE LOOKOUT NC  1200   53      20/ 18/ 23 1012.5R
BUOY 41002       1150   72 75  200/ 23/ 27 1012.7F   9/ 7   2/ 20/11
BUOY 41010       NOT AVBL
ST AUGUSTINE FL  1200   63 64  260/ 11/ 14 1018.5R


$$




USA.gov is the U.S. government's official web portal to all federal, state and local government web resources and services.